Tracking 29799 objects as of 11-Oct-2024
HD Live streaming from Space Station
objects crossing your sky now

STARLINK-30885

Track STARLINK-30885 now!
10-day predictions
STARLINK-30885 is classified as:


NORAD ID: 58361
Int'l Code: 2023-177L
Perigee: 565.2 km
Apogee: 567.0 km
Inclination: 43.0 °
Period: 95.8 minutes
Semi major axis: 6937 km
RCS: Unknown
Launch date: November 18, 2023
Source: United States (US)
Launch site: AIR FORCE EASTERN TEST RANGE (AFETR)
Your satellite tracking list
Your tracking list is empty




NASA's NSSDC Master Catalog

Two Line Element Set (TLE):
1 58361U 23177L   24285.22275227  .00015919  00000-0  11893-2 0  9992
2 58361  43.0035 267.3152 0001290 257.4418 102.6280 15.02583678 50840
Source of the keplerian elements: AFSPC